Weather in Puerto Francisco de Orellana

Ecuador     0°27′37″N   76°59′30″W
temp.,
°C
wind,
m/s
gust,
m/s
humid.,
%
clouds,
%
prec.,
mm/h
press.,
hPa
HPBL,
m
11 april, sun
sun1101:00+21nw11100100 8.4 101135
04:00+21w00100100 2.4 101031
07:00+21nnw0010099 5.9 101258
10:00+23e1296100 1.6 1014312
13:00+23s1398100 8.6 1012173
16:00+22sw1599100 6.1 1010212
19:00+21w1499100 7.4 1011140
22:00+21n1198100 0.0 101218
12 april, mon
mon1201:00+21nnw0099100 0.0 101118
04:00+20e019994 0.0 101017
07:00+21nw119969 0.0 101272
10:00+28n016577 0.0 1014839
13:00+31se115199 0.1 10101918
16:00+25ne139459 1.6 100895
19:00+22ene1197100 7.4 101112
22:00+22n1199100 4.9 101432
13 april, tue
tue1301:00+22n12100100 7.9 1013110
04:00+21nne01100100 5.9 101249
07:00+21n12100100 11.9 1014112
10:00+22wsw1399100 6.2 1017149
13:00+23wnw129580 8.3 1014273
16:00+22n149799 1.1 1012205
19:00+21e009794 1.1 101215
22:00+21wsw1196100 0.0 101416
14 april, wed
wed1401:00+21ssw0097100 0.0 101320
04:00+20s119957 0.2 101226
07:00+21sw129765 0.2 101493
10:00+27s236650 0.0 1015788
13:00+27sse237557 0.8 1012906
16:00+26s259219 2.6 1009574
19:00+22se1199100 5.6 101116
22:00+22s009974 0.0 101315
15 april, thu
thu1501:00+21sw1110048 0.0 101136
04:00+20s1110090 0.0 101121
07:00+21ssw019991 0.0 101356
10:00+27s127368 0.1 1015707
13:00+30sse125627 0.4 10101538
16:00+25se249489 3.0 1009431
19:00+22sse0098100 8.4 101112
22:00+22ene1199100 0.2 101218